When you browse on this site, cookies collect data to enhance your experience and personalize the content and advertising you see.
Visit our Privacy Policy to learn more. By continuing to use the site, you agree to this use of cookies and data.
  • In Deutschland
  • Länderverzeichnis
  • Für 7 Tage
  • Wassertemperatur
  • Satellitenkarten
  • Wetterkarte
  • Widgets
  • user-avatar
    Anmelden

    Stündliche Wetter Golejewo

    Heute, 10 Dezember, Montag

    Zeit Temperatur Niederschläge Wind Luftdruck Luftfeuchtigkeit
    00:00 +4°C° 0.2 mm 4 m/S 735 mmHg 89%
    01:00 +4°C° 0.2 mm 4 m/S 735 mmHg 89%
    02:00 +3°C° 0.3 mm 5 m/S 735 mmHg 89%
    03:00 +3°C° 0.3 mm 5 m/S 735 mmHg 88%
    04:00 +3°C° 0.3 mm 5 m/S 736 mmHg 87%
    05:00 +3°C° 0.4 mm 6 m/S 736 mmHg 82%
    06:00 +2°C° 0.4 mm 7 m/S 736 mmHg 78%
    07:00 +2°C° 0.4 mm 7 m/S 737 mmHg 73%
    08:00 +2°C° 0 mm 7 m/S 738 mmHg 73%
    09:00 +2°C° 0 mm 7 m/S 738 mmHg 74%
    10:00 +2°C° 0 mm 7 m/S 739 mmHg 74%
    11:00 +2°C° 0 mm 7 m/S 739 mmHg 71%
    12:00 +2°C° 0 mm 7 m/S 740 mmHg 69%
    13:00 +3°C° 0 mm 7 m/S 740 mmHg 66%
    14:00 +2°C° 0 mm 6 m/S 741 mmHg 67%
    15:00 +2°C° 0 mm 6 m/S 741 mmHg 67%
    16:00 +2°C° 0 mm 5 m/S 741 mmHg 68%
    17:00 +1°C° 0 mm 5 m/S 742 mmHg 70%
    18:00 +1°C° 0 mm 5 m/S 742 mmHg 73%
    19:00 0°C° 0 mm 5 m/S 742 mmHg 75%
    20:00 0°C° 0 mm 5 m/S 742 mmHg 77%
    21:00 -1°C° 0 mm 5 m/S 742 mmHg 78%
    22:00 -1°C° 0 mm 4 m/S 742 mmHg 80%
    23:00 -1°C° 0 mm 4 m/S 742 mmHg 82%

    Morgen, 11 Dezember, Dienstag

    Zeit Temperatur Niederschläge Wind Luftdruck Luftfeuchtigkeit
    00:00 -1°C° 0 mm 4 m/S 743 mmHg 84%
    01:00 -2°C° 0 mm 4 m/S 743 mmHg 86%
    02:00 -2°C° 0 mm 4 m/S 743 mmHg 87%
    03:00 -2°C° 0 mm 4 m/S 743 mmHg 88%
    04:00 -2°C° 0 mm 4 m/S 742 mmHg 89%
    05:00 -2°C° 0.2 mm 4 m/S 743 mmHg 90%
    06:00 -1°C° 0.2 mm 3 m/S 743 mmHg 90%
    07:00 0°C° 0.2 mm 3 m/S 743 mmHg 90%
    08:00 0°C° 0.2 mm 3 m/S 743 mmHg 90%
    09:00 0°C° 0.2 mm 3 m/S 743 mmHg 89%
    10:00 +1°C° 0.2 mm 3 m/S 744 mmHg 89%
    11:00 +2°C° 0.1 mm 2 m/S 744 mmHg 89%
    12:00 +2°C° 0.1 mm 2 m/S 744 mmHg 89%
    13:00 +2°C° 0.1 mm 2 m/S 745 mmHg 89%
    14:00 +2°C° 0.1 mm 2 m/S 745 mmHg 90%
    15:00 +2°C° 0.1 mm 2 m/S 745 mmHg 91%
    16:00 +2°C° 0.1 mm 2 m/S 746 mmHg 93%
    17:00 +1°C° 0.1 mm 2 m/S 746 mmHg 93%
    18:00 +1°C° 0.1 mm 2 m/S 747 mmHg 93%
    19:00 +1°C° 0.1 mm 2 m/S 747 mmHg 93%
    20:00 +1°C° 0 mm 2 m/S 747 mmHg 93%
    21:00 -1°C° 0 mm 2 m/S 748 mmHg 93%
    22:00 -1°C° 0 mm 2 m/S 748 mmHg 94%
    23:00 -1°C° 0 mm 2 m/S 749 mmHg 94%

    übermorgen, 12 Dezember, Mittwoch

    Zeit Temperatur Niederschläge Wind Luftdruck Luftfeuchtigkeit
    00:00 -2°C° 0 mm 2 m/S 749 mmHg 94%
    01:00 -2°C° 0 mm 2 m/S 750 mmHg 93%
    02:00 -2°C° 0 mm 2 m/S 750 mmHg 93%
    03:00 -2°C° 0 mm 2 m/S 750 mmHg 93%
    04:00 -2°C° 0 mm 2 m/S 750 mmHg 93%
    05:00 -2°C° 0 mm 2 m/S 751 mmHg 92%
    06:00 -2°C° 0 mm 2 m/S 751 mmHg 92%
    07:00 -2°C° 0 mm 2 m/S 752 mmHg 92%
    08:00 -2°C° 0 mm 2 m/S 752 mmHg 90%
    09:00 -1°C° 0 mm 2 m/S 752 mmHg 87%
    10:00 -1°C° 0 mm 2 m/S 753 mmHg 85%
    11:00 -1°C° 0 mm 2 m/S 753 mmHg 83%
    12:00 +1°C° 0 mm 2 m/S 753 mmHg 82%
    13:00 +1°C° 0 mm 2 m/S 753 mmHg 80%
    14:00 +1°C° 0 mm 2 m/S 753 mmHg 83%
    15:00 -1°C° 0 mm 2 m/S 754 mmHg 87%
    16:00 -2°C° 0 mm 2 m/S 754 mmHg 90%
    17:00 -2°C° 0 mm 2 m/S 754 mmHg 90%
    18:00 -2°C° 0 mm 2 m/S 754 mmHg 91%
    19:00 -2°C° 0 mm 2 m/S 754 mmHg 92%
    20:00 -2°C° 0 mm 2 m/S 754 mmHg 92%
    21:00 -2°C° 0 mm 2 m/S 755 mmHg 92%
    22:00 -2°C° 0 mm 2 m/S 755 mmHg 92%
    23:00 -2°C° 0 mm 2 m/S 755 mmHg 92%

    13 Dezember, Donnerstag

    Zeit Temperatur Niederschläge Wind Luftdruck Luftfeuchtigkeit
    00:00 -2°C° 0 mm 2 m/S 755 mmHg 92%
    01:00 -2°C° 0 mm 2 m/S 755 mmHg 92%
    02:00 -2°C° 0 mm 2 m/S 755 mmHg 92%
    03:00 -2°C° 0 mm 2 m/S 755 mmHg 92%
    04:00 -2°C° 0 mm 2 m/S 755 mmHg 92%
    05:00 -2°C° 0 mm 2 m/S 755 mmHg 92%
    06:00 -2°C° 0 mm 2 m/S 754 mmHg 92%
    07:00 -2°C° 0 mm 2 m/S 754 mmHg 92%
    08:00 -2°C° 0 mm 2 m/S 754 mmHg 90%
    09:00 -1°C° 0 mm 2 m/S 754 mmHg 89%
    10:00 -1°C° 0 mm 3 m/S 754 mmHg 87%
    11:00 -1°C° 0 mm 3 m/S 754 mmHg 86%
    12:00 -1°C° 0 mm 3 m/S 754 mmHg 84%
    13:00 +1°C° 0 mm 2 m/S 754 mmHg 82%
    14:00 -1°C° 0 mm 2 m/S 754 mmHg 84%
    15:00 -1°C° 0 mm 2 m/S 753 mmHg 86%
    16:00 -1°C° 0 mm 2 m/S 753 mmHg 87%
    17:00 -2°C° 0 mm 2 m/S 753 mmHg 87%
    18:00 -2°C° 0 mm 2 m/S 753 mmHg 87%
    19:00 -2°C° 0 mm 2 m/S 753 mmHg 88%
    20:00 -2°C° 0 mm 2 m/S 753 mmHg 88%
    21:00 -2°C° 0 mm 2 m/S 753 mmHg 88%
    22:00 -2°C° 0 mm 2 m/S 753 mmHg 89%
    23:00 -2°C° 0 mm 2 m/S 753 mmHg 89%

    14 Dezember, Freitag

    Zeit Temperatur Niederschläge Wind Luftdruck Luftfeuchtigkeit
    00:00 -2°C° 0 mm 2 m/S 753 mmHg 90%
    01:00 -1°C° 0 mm 1 m/S 753 mmHg 91%
    02:00 -2°C° 0 mm 2 m/S 753 mmHg 90%
    03:00 -2°C° 0 mm 2 m/S 753 mmHg 90%
    04:00 -2°C° 0 mm 2 m/S 753 mmHg 90%
    05:00 -2°C° 0 mm 2 m/S 753 mmHg 91%
    06:00 -2°C° 0 mm 2 m/S 753 mmHg 92%
    07:00 -2°C° 0 mm 2 m/S 753 mmHg 92%
    08:00 -2°C° 0 mm 2 m/S 754 mmHg 91%
    09:00 -2°C° 0 mm 2 m/S 754 mmHg 89%
    10:00 -1°C° 0 mm 3 m/S 754 mmHg 87%
    11:00 -1°C° 0 mm 2 m/S 754 mmHg 84%
    12:00 -1°C° 0 mm 2 m/S 754 mmHg 81%
    13:00 -1°C° 0 mm 2 m/S 754 mmHg 78%
    14:00 -1°C° 0 mm 2 m/S 754 mmHg 80%
    15:00 -2°C° 0 mm 2 m/S 754 mmHg 81%
    16:00 -2°C° 0 mm 2 m/S 754 mmHg 82%
    17:00 -2°C° 0 mm 2 m/S 754 mmHg 83%
    18:00 -2°C° 0 mm 2 m/S 753 mmHg 84%
    19:00 -2°C° 0 mm 2 m/S 753 mmHg 85%
    20:00 -3°C° 0 mm 2 m/S 753 mmHg 86%
    21:00 -3°C° 0 mm 2 m/S 754 mmHg 88%
    22:00 -3°C° 0 mm 2 m/S 754 mmHg 89%
    23:00 -3°C° 0 mm 2 m/S 754 mmHg 89%

    15 Dezember, Samstag

    Zeit Temperatur Niederschläge Wind Luftdruck Luftfeuchtigkeit
    00:00 -3°C° 0 mm 2 m/S 754 mmHg 88%
    01:00 -3°C° 0 mm 2 m/S 754 mmHg 88%
    02:00 -3°C° 0 mm 2 m/S 754 mmHg 88%
    03:00 -3°C° 0 mm 2 m/S 754 mmHg 88%
    04:00 -4°C° 0 mm 3 m/S 754 mmHg 88%
    05:00 -4°C° 0 mm 3 m/S 755 mmHg 88%
    06:00 -3°C° 0 mm 2 m/S 755 mmHg 88%
    07:00 -3°C° 0 mm 2 m/S 755 mmHg 88%
    08:00 -2°C° 0 mm 3 m/S 756 mmHg 87%
    09:00 -2°C° 0 mm 3 m/S 756 mmHg 85%
    10:00 -2°C° 0 mm 3 m/S 757 mmHg 83%
    11:00 -2°C° 0 mm 3 m/S 757 mmHg 82%
    12:00 -1°C° 0 mm 3 m/S 757 mmHg 80%
    13:00 -1°C° 0 mm 3 m/S 757 mmHg 79%
    14:00 -2°C° 0 mm 2 m/S 758 mmHg 81%
    15:00 -2°C° 0 mm 2 m/S 758 mmHg 84%
    16:00 -3°C° 0 mm 2 m/S 758 mmHg 86%
    17:00 -3°C° 0 mm 2 m/S 759 mmHg 86%
    18:00 -3°C° 0 mm 2 m/S 759 mmHg 87%
    19:00 -3°C° 0 mm 2 m/S 759 mmHg 87%
    20:00 -3°C° 0 mm 2 m/S 759 mmHg 87%
    21:00 -3°C° 0 mm 2 m/S 760 mmHg 87%
    22:00 -3°C° 0 mm 2 m/S 760 mmHg 88%
    23:00 -3°C° 0 mm 2 m/S 760 mmHg 88%
    Mehr zeigen